GLO1783 SBEG-SBBR

Flight info

Callsign GLO1783
Flight time N/A
Altitude 33000
Route GIKVI UZ6 PAMEB UL795 MUKSA UM423 UMPEG UZ40 BUPTU UZ98 ELISA
Aircraft B738/M-DGVW/C

Departure

Time 2026-04-28 02:16
Airport Eduardo Gomes International Airport (SBEG)

Arrival

Time N/A
Airport Presidente Juscelino Kubitschek International Airport (SBBR)
Time Latitude Longitude Altitude Speed Heading
2026-04-28 01:41 -3.03278 -60.04589 301 ft 0 kts 358°
2026-04-28 01:42 -3.03278 -60.04684 298 ft 0 kts 331°
2026-04-28 01:42 -3.03290 -60.04678 301 ft 5 kts 329°
2026-04-28 01:43 -3.03271 -60.04673 299 ft 3 kts
2026-04-28 01:43 -3.03270 -60.04673 299 ft 0 kts
2026-04-28 01:43 -3.03275 -60.04673 299 ft 0 kts
2026-04-28 02:06 -3.03279 -60.04673 301 ft 2 kts
2026-04-28 02:06 -3.03295 -60.04674 298 ft 2 kts
2026-04-28 02:07 -3.03311 -60.04676 298 ft 2 kts
2026-04-28 02:07 -3.03327 -60.04676 299 ft 2 kts 307°
2026-04-28 02:07 -3.03325 -60.04664 302 ft 2 kts 158°
2026-04-28 02:07 -3.03321 -60.04674 298 ft 1 kts 37°
2026-04-28 02:08 -3.03321 -60.04675 298 ft 2 kts 37°
2026-04-28 02:08 -3.03333 -60.04676 299 ft 0 kts 308°
2026-04-28 02:10 -3.03330 -60.04680 299 ft 0 kts 308°
2026-04-28 02:11 -3.03354 -60.04737 299 ft 18 kts 240°
2026-04-28 02:12 -3.03445 -60.04857 297 ft 24 kts 222°
2026-04-28 02:12 -3.03568 -60.04985 297 ft 24 kts 248°
2026-04-28 02:12 -3.03615 -60.05131 297 ft 21 kts 255°
2026-04-28 02:12 -3.03651 -60.05271 299 ft 20 kts 255°
2026-04-28 02:13 -3.03684 -60.05405 295 ft 20 kts 260°
2026-04-28 02:13 -3.03690 -60.05542 294 ft 19 kts 270°
2026-04-28 02:13 -3.03690 -60.05674 295 ft 19 kts 270°
2026-04-28 02:13 -3.03691 -60.05812 297 ft 21 kts 270°
2026-04-28 02:14 -3.03692 -60.05967 295 ft 23 kts 270°
2026-04-28 02:14 -3.03699 -60.06125 294 ft 15 kts 247°
2026-04-28 02:14 -3.03766 -60.06166 292 ft 8 kts 189°
2026-04-28 02:14 -3.03824 -60.06169 293 ft 8 kts 170°
2026-04-28 02:15 -3.03854 -60.05843 293 ft 80 kts 91°
2026-04-28 02:15 -3.03857 -60.05034 296 ft 150 kts 90°
2026-04-28 02:15 -3.03854 -60.03804 463 ft 195 kts 89°
2026-04-28 02:16 -3.03892 -60.02396 1182 ft 208 kts 91°
2026-04-28 02:16 -3.03995 -60.00939 1953 ft 215 kts 90°
2026-04-28 02:16 -3.04085 -59.99473 2465 ft 214 kts 100°
2026-04-28 02:16 -3.04465 -59.98003 3050 ft 224 kts 103°
2026-04-28 02:17 -3.04863 -59.96449 3674 ft 237 kts 102°
2026-04-28 02:17 -3.05291 -59.94778 3981 ft 258 kts 103°
2026-04-28 02:17 -3.05588 -59.93625 4065 ft 258 kts 103°
2026-04-28 02:17 -3.06160 -59.91306 4648 ft 257 kts 102°
2026-04-28 02:18 -3.06458 -59.90145 4941 ft 261 kts 103°
2026-04-28 02:18 -3.07120 -59.87779 5644 ft 266 kts 103°
2026-04-28 02:18 -3.07418 -59.86597 5978 ft 264 kts 103°
2026-04-28 02:18 -3.07861 -59.84817 6536 ft 266 kts 103°
2026-04-28 02:19 -3.08311 -59.83005 7035 ft 271 kts 102°
2026-04-28 02:19 -3.08767 -59.81164 7524 ft 273 kts 102°
2026-04-28 02:19 -3.09226 -59.79321 8031 ft 274 kts 102°
2026-04-28 02:19 -3.09688 -59.77468 8556 ft 276 kts 102°
2026-04-28 02:20 -3.10165 -59.75597 9060 ft 278 kts 102°
2026-04-28 02:20 -3.10633 -59.73721 9585 ft 278 kts 102°
2026-04-28 02:20 -3.11102 -59.71836 10088 ft 283 kts 102°
2026-04-28 02:20 -3.11584 -59.69908 10189 ft 287 kts 102°
2026-04-28 02:21 -3.12070 -59.67970 10215 ft 288 kts 102°
2026-04-28 02:21 -3.12569 -59.65980 10326 ft 305 kts 102°
2026-04-28 02:21 -3.13103 -59.63846 10495 ft 327 kts 102°
2026-04-28 02:21 -3.13675 -59.61574 10737 ft 345 kts 103°
2026-04-28 02:22 -3.14267 -59.59215 11233 ft 352 kts 103°
2026-04-28 02:22 -3.14864 -59.56837 11897 ft 353 kts 103°
2026-04-28 02:22 -3.15466 -59.54437 12505 ft 357 kts 103°
2026-04-28 02:22 -3.16073 -59.52020 13078 ft 362 kts 103°
2026-04-28 02:23 -3.16674 -59.49627 13654 ft 365 kts 103°
2026-04-28 02:23 -3.17295 -59.47154 14227 ft 367 kts 103°
2026-04-28 02:23 -3.17919 -59.44668 14782 ft 370 kts 103°
2026-04-28 02:23 -3.18548 -59.42162 15318 ft 372 kts 103°
2026-04-28 02:24 -3.19179 -59.39645 15870 ft 374 kts 103°
2026-04-28 02:24 -3.19816 -59.37108 16410 ft 377 kts 103°
2026-04-28 02:24 -3.20456 -59.34554 16908 ft 380 kts 103°
2026-04-28 02:24 -3.21102 -59.31977 17419 ft 383 kts 104°
2026-04-28 02:25 -3.21753 -59.29380 17933 ft 386 kts 104°
2026-04-28 02:25 -3.22409 -59.26763 18399 ft 389 kts 104°
2026-04-28 02:25 -3.23068 -59.24139 18842 ft 391 kts 104°
2026-04-28 02:25 -3.23733 -59.21485 19276 ft 393 kts 104°
2026-04-28 02:26 -3.24390 -59.18863 19694 ft 395 kts 104°
2026-04-28 02:26 -3.25061 -59.16184 20117 ft 398 kts 103°
2026-04-28 02:26 -3.25733 -59.13492 20540 ft 400 kts 104°
2026-04-28 02:26 -3.26412 -59.10784 20932 ft 403 kts 104°
2026-04-28 02:27 -3.27104 -59.08063 21332 ft 405 kts 106°
2026-04-28 02:27 -3.28298 -59.05508 21672 ft 410 kts 126°
2026-04-28 02:27 -3.30302 -59.03469 22040 ft 414 kts 142°
2026-04-28 02:27 -3.32817 -59.02049 22412 ft 419 kts 159°
2026-04-28 02:28 -3.35642 -59.01287 22796 ft 422 kts 166°
2026-04-28 02:28 -3.38522 -59.00661 23145 ft 425 kts 167°
2026-04-28 02:28 -3.41435 -59.00063 23481 ft 428 kts 167°
2026-04-28 02:28 -3.44206 -58.99496 23766 ft 430 kts 167°
2026-04-28 02:29 -3.47145 -58.98885 24076 ft 432 kts 166°
2026-04-28 02:29 -3.50089 -58.98260 24386 ft 433 kts 166°
2026-04-28 02:29 -3.53035 -58.97624 24687 ft 435 kts 166°
2026-04-28 02:29 -3.55995 -58.96979 24975 ft 436 kts 166°
2026-04-28 02:30 -3.58968 -58.96326 25254 ft 438 kts 166°
2026-04-28 02:30 -3.61955 -58.95670 25533 ft 440 kts 166°
2026-04-28 02:30 -3.64948 -58.95011 25816 ft 441 kts 166°
2026-04-28 02:30 -3.67953 -58.94349 26090 ft 443 kts 166°
2026-04-28 02:31 -3.70967 -58.93686 26362 ft 445 kts 166°
2026-04-28 02:31 -3.73996 -58.93020 26628 ft 446 kts 166°
2026-04-28 02:31 -3.77033 -58.92352 26888 ft 448 kts 166°
2026-04-28 02:31 -3.80079 -58.91682 27144 ft 449 kts 166°
2026-04-28 02:32 -3.83139 -58.91009 27400 ft 451 kts 166°
2026-04-28 02:32 -3.86204 -58.90335 27636 ft 452 kts 166°
2026-04-28 02:32 -3.89286 -58.89657 27881 ft 454 kts 166°
2026-04-28 02:32 -3.92374 -58.88977 28111 ft 456 kts 166°
2026-04-28 02:33 -3.95481 -58.88294 28299 ft 458 kts 165°
2026-04-28 02:33 -3.98601 -58.87607 28510 ft 460 kts 165°
2026-04-28 02:33 -4.01732 -58.86918 28766 ft 461 kts 165°
2026-04-28 02:33 -4.04861 -58.86230 29090 ft 460 kts 165°
2026-04-28 02:34 -4.07978 -58.85545 29456 ft 458 kts 165°
2026-04-28 02:34 -4.11085 -58.84862 29810 ft 457 kts 165°
2026-04-28 02:34 -4.14188 -58.84179 30105 ft 456 kts 165°
2026-04-28 02:34 -4.17286 -58.83497 30371 ft 456 kts 165°
2026-04-28 02:35 -4.20344 -58.82823 30640 ft 455 kts 165°
2026-04-28 02:35 -4.23435 -58.82143 30905 ft 455 kts 165°
2026-04-28 02:35 -4.26524 -58.81463 31200 ft 454 kts 165°
2026-04-28 02:35 -4.29604 -58.80785 31500 ft 453 kts 165°
2026-04-28 02:36 -4.32678 -58.80108 31776 ft 452 kts 165°
2026-04-28 02:36 -4.35754 -58.79430 32023 ft 452 kts 165°
2026-04-28 02:36 -4.38828 -58.78753 32292 ft 452 kts 165°
2026-04-28 02:36 -4.41892 -58.78078 32578 ft 451 kts 165°
2026-04-28 02:37 -4.44955 -58.77403 32858 ft 451 kts 165°
2026-04-28 02:37 -4.48021 -58.76727 33034 ft 452 kts 165°
2026-04-28 02:37 -4.51102 -58.76043 33017 ft 455 kts 163°
2026-04-28 02:38 -4.56925 -58.73597 33035 ft 456 kts 146°
2026-04-28 02:38 -4.61876 -58.69594 33033 ft 460 kts 136°
2026-04-28 02:39 -4.66594 -58.65203 33023 ft 465 kts 136°
2026-04-28 02:39 -4.71366 -58.60789 33021 ft 468 kts 136°
2026-04-28 02:40 -4.76187 -58.56382 33022 ft 469 kts 136°
2026-04-28 02:40 -4.80987 -58.52012 33023 ft 469 kts 136°
2026-04-28 02:41 -4.85822 -58.47611 33025 ft 469 kts 136°
2026-04-28 02:41 -4.90639 -58.43222 33025 ft 468 kts 136°
2026-04-28 02:42 -4.95441 -58.38845 33024 ft 466 kts 136°
2026-04-28 02:42 -5.00222 -58.34486 33026 ft 465 kts 136°
2026-04-28 02:43 -5.05001 -58.30127 33025 ft 464 kts 136°
2026-04-28 02:43 -5.09779 -58.25770 33027 ft 464 kts 136°
2026-04-28 02:44 -5.14552 -58.21415 33026 ft 463 kts 136°
2026-04-28 02:44 -5.19318 -58.17065 33021 ft 463 kts 136°
2026-04-28 02:45 -5.24090 -58.12717 33041 ft 464 kts 136°
2026-04-28 02:45 -5.28896 -58.08390 33039 ft 465 kts 136°
2026-04-28 02:46 -5.33727 -58.04053 33034 ft 466 kts 136°
2026-04-28 02:46 -5.38432 -57.99820 33038 ft 467 kts 136°
2026-04-28 02:47 -5.43279 -57.95456 33040 ft 468 kts 136°
2026-04-28 02:47 -5.48095 -57.91115 33043 ft 469 kts 136°
2026-04-28 02:48 -5.52946 -57.86742 33036 ft 468 kts 136°
2026-04-28 02:48 -5.57790 -57.82376 33038 ft 468 kts 136°
2026-04-28 02:49 -5.62627 -57.78014 33037 ft 467 kts 136°
2026-04-28 02:49 -5.67467 -57.73649 33040 ft 467 kts 136°
2026-04-28 02:50 -5.72299 -57.69289 33037 ft 467 kts 136°
2026-04-28 02:50 -5.77129 -57.64930 33030 ft 467 kts 136°
2026-04-28 02:51 -5.81958 -57.60573 33034 ft 467 kts 137°
2026-04-28 02:51 -5.86785 -57.56215 33033 ft 467 kts 137°
2026-04-28 02:52 -5.91613 -57.51854 33029 ft 466 kts 137°
2026-04-28 02:52 -5.96436 -57.47497 33032 ft 466 kts 137°
2026-04-28 02:53 -6.01240 -57.43157 33035 ft 466 kts 137°
2026-04-28 02:53 -6.06065 -57.38797 33032 ft 466 kts 137°
2026-04-28 02:54 -6.10889 -57.34436 33027 ft 467 kts 137°
2026-04-28 02:54 -6.15721 -57.30067 33034 ft 468 kts 137°
2026-04-28 02:55 -6.20530 -57.25717 33040 ft 469 kts 137°
2026-04-28 02:55 -6.25385 -57.21326 33034 ft 470 kts 137°
2026-04-28 02:56 -6.30244 -57.16929 33033 ft 470 kts 137°
2026-04-28 02:56 -6.35112 -57.12523 33031 ft 471 kts 137°
2026-04-28 02:57 -6.39976 -57.08119 33034 ft 471 kts 137°
2026-04-28 02:57 -6.44846 -57.03709 33026 ft 471 kts 137°
2026-04-28 02:58 -6.49589 -56.99413 33039 ft 470 kts 137°
2026-04-28 02:58 -6.54444 -56.95014 33027 ft 470 kts 137°
2026-04-28 02:59 -6.59294 -56.90619 33037 ft 469 kts 137°
2026-04-28 02:59 -6.64113 -56.86249 33035 ft 469 kts 137°
2026-04-28 03:00 -6.68965 -56.81850 33038 ft 469 kts 137°
2026-04-28 03:00 -6.73810 -56.77455 33036 ft 469 kts 137°
2026-04-28 03:01 -6.78651 -56.73062 33035 ft 468 kts 137°
2026-04-28 03:01 -6.83486 -56.68673 33022 ft 468 kts 137°
2026-04-28 03:02 -6.88323 -56.64282 33024 ft 468 kts 137°
2026-04-28 03:02 -6.93166 -56.59885 33031 ft 469 kts 137°
2026-04-28 03:03 -6.98004 -56.55489 33025 ft 469 kts 137°
2026-04-28 03:03 -7.02833 -56.51101 33038 ft 469 kts 136°
2026-04-28 03:04 -7.07678 -56.46698 33029 ft 469 kts 136°
2026-04-28 03:04 -7.12523 -56.42292 33031 ft 469 kts 136°
2026-04-28 03:05 -7.17362 -56.37890 33027 ft 469 kts 137°
2026-04-28 03:05 -7.22206 -56.33482 33031 ft 469 kts 137°
2026-04-28 03:06 -7.27048 -56.29076 33022 ft 469 kts 136°
2026-04-28 03:06 -7.32048 -56.24843 33033 ft 470 kts 140°
2026-04-28 03:07 -7.37223 -56.20823 33029 ft 470 kts 141°
2026-04-28 03:07 -7.42412 -56.16810 33023 ft 470 kts 141°
2026-04-28 03:08 -7.47581 -56.12764 33028 ft 470 kts 141°
2026-04-28 03:08 -7.52737 -56.08702 33027 ft 470 kts 141°
2026-04-28 03:09 -7.57855 -56.04661 33026 ft 471 kts 141°
2026-04-28 03:09 -7.63008 -56.00593 33031 ft 471 kts 141°
2026-04-28 03:10 -7.68032 -55.96626 33025 ft 471 kts 141°
2026-04-28 03:10 -7.73188 -55.92555 33029 ft 471 kts 140°
2026-04-28 03:11 -7.77476 -55.89168 33025 ft 471 kts 140°
2026-04-28 03:11 -7.82626 -55.85099 33023 ft 471 kts 141°
2026-04-28 03:12 -7.87780 -55.81026 33028 ft 471 kts 140°
2026-04-28 03:12 -7.92934 -55.76951 33024 ft 471 kts 141°
2026-04-28 03:13 -7.98089 -55.72874 33021 ft 471 kts 141°
2026-04-28 03:13 -8.03228 -55.68808 33031 ft 471 kts 141°
2026-04-28 03:14 -8.08384 -55.64728 33024 ft 471 kts 141°
2026-04-28 03:14 -8.13541 -55.60646 33027 ft 471 kts 141°
2026-04-28 03:15 -8.18693 -55.56566 33023 ft 470 kts 141°
2026-04-28 03:15 -8.23835 -55.52493 33024 ft 469 kts 141°
2026-04-28 03:16 -8.28964 -55.48428 33032 ft 469 kts 141°
2026-04-28 03:16 -8.34094 -55.44361 33025 ft 469 kts 141°
2026-04-28 03:17 -8.39217 -55.40299 33031 ft 468 kts 141°
2026-04-28 03:17 -8.46903 -55.34201 33030 ft 468 kts 140°
2026-04-28 03:18 -8.52023 -55.30137 33032 ft 468 kts 140°
2026-04-28 03:18 -8.57141 -55.26074 33031 ft 468 kts 141°
2026-04-28 03:19 -8.62256 -55.22011 33028 ft 468 kts 141°
2026-04-28 03:19 -8.67381 -55.17940 33030 ft 468 kts 141°
2026-04-28 03:20 -8.72504 -55.13867 33030 ft 469 kts 141°
2026-04-28 03:20 -8.77595 -55.09820 33032 ft 469 kts 141°
2026-04-28 03:21 -8.82728 -55.05737 33033 ft 469 kts 140°
2026-04-28 03:21 -8.87859 -55.01655 33023 ft 469 kts 141°
2026-04-28 03:22 -8.92852 -54.97680 33030 ft 469 kts 140°
2026-04-28 03:22 -8.97978 -54.93599 33030 ft 469 kts 140°
2026-04-28 03:23 -9.03079 -54.89536 33025 ft 469 kts 141°
2026-04-28 03:23 -9.08206 -54.85451 33014 ft 470 kts 141°
2026-04-28 03:24 -9.13341 -54.81357 33020 ft 470 kts 141°
2026-04-28 03:24 -9.18472 -54.77266 33049 ft 470 kts 140°
2026-04-28 03:25 -9.23605 -54.73171 33046 ft 469 kts 141°
2026-04-28 03:25 -9.28733 -54.69077 33035 ft 470 kts 141°
2026-04-28 03:26 -9.33864 -54.64981 33019 ft 470 kts 141°
2026-04-28 03:26 -9.38988 -54.60889 33011 ft 469 kts 141°
2026-04-28 03:27 -9.44086 -54.56816 33016 ft 470 kts 141°
2026-04-28 03:27 -9.49217 -54.52715 33011 ft 470 kts 141°
2026-04-28 03:28 -9.54361 -54.48602 33008 ft 471 kts 141°
2026-04-28 03:28 -9.59503 -54.44489 33016 ft 471 kts 141°
2026-04-28 03:29 -9.64649 -54.40370 33005 ft 471 kts 141°
2026-04-28 03:29 -9.69791 -54.36254 33010 ft 471 kts 141°
2026-04-28 03:30 -9.74927 -54.32141 32995 ft 470 kts 141°
2026-04-28 03:30 -9.80055 -54.28031 33003 ft 470 kts 141°
2026-04-28 03:31 -9.85185 -54.23919 32994 ft 470 kts 141°
2026-04-28 03:31 -9.90321 -54.19799 33000 ft 471 kts 141°
2026-04-28 03:32 -9.95466 -54.15674 33006 ft 471 kts 141°
2026-04-28 03:32 -10.01079 -54.12294 33011 ft 473 kts 154°
2026-04-28 03:33 -10.07049 -54.09464 33000 ft 474 kts 153°
2026-04-28 03:33 -10.12934 -54.06555 32997 ft 474 kts 153°
2026-04-28 03:34 -10.18891 -54.03589 32998 ft 474 kts 153°
2026-04-28 03:34 -10.24779 -54.00663 33004 ft 475 kts 153°
2026-04-28 03:35 -10.30549 -53.97797 32996 ft 475 kts 153°
2026-04-28 03:35 -10.36489 -53.94846 32997 ft 475 kts 153°
2026-04-28 03:36 -10.42429 -53.91894 32991 ft 475 kts 153°
2026-04-28 03:36 -10.48371 -53.88938 32994 ft 475 kts 153°
2026-04-28 03:37 -10.54309 -53.85984 32992 ft 476 kts 153°
2026-04-28 03:37 -10.60263 -53.83021 32988 ft 476 kts 153°
2026-04-28 03:38 -10.66210 -53.80061 32989 ft 476 kts 152°
2026-04-28 03:38 -10.72160 -53.77095 32987 ft 476 kts 153°
2026-04-28 03:39 -10.78118 -53.74124 32994 ft 477 kts 153°
2026-04-28 03:39 -10.84079 -53.71152 32985 ft 477 kts 153°
2026-04-28 03:40 -10.90036 -53.68180 32975 ft 477 kts 153°
2026-04-28 03:40 -10.95991 -53.65208 32985 ft 476 kts 153°
2026-04-28 03:41 -11.01876 -53.62266 32980 ft 476 kts 153°
2026-04-28 03:41 -11.07829 -53.59286 32978 ft 476 kts 153°
2026-04-28 03:42 -11.13776 -53.56311 32978 ft 476 kts 153°
2026-04-28 03:42 -11.19722 -53.53335 32981 ft 476 kts 153°
2026-04-28 03:43 -11.25668 -53.50357 32972 ft 476 kts 153°
2026-04-28 03:43 -11.31620 -53.47375 32977 ft 476 kts 153°
2026-04-28 03:44 -11.37560 -53.44396 32976 ft 476 kts 153°
2026-04-28 03:44 -11.43506 -53.41414 32971 ft 476 kts 153°
2026-04-28 03:45 -11.49449 -53.38432 32969 ft 476 kts 153°
2026-04-28 03:45 -11.55387 -53.35450 32970 ft 476 kts 153°
2026-04-28 03:46 -11.61336 -53.32464 32971 ft 476 kts 153°
2026-04-28 03:46 -11.67283 -53.29476 32968 ft 477 kts 153°
2026-04-28 03:47 -11.73194 -53.26502 32967 ft 477 kts 153°
2026-04-28 03:47 -11.79151 -53.23507 32965 ft 477 kts 153°
2026-04-28 03:48 -11.85112 -53.20507 32963 ft 478 kts 153°
2026-04-28 03:48 -11.91068 -53.17509 32961 ft 478 kts 153°
2026-04-28 03:49 -11.97034 -53.14503 32963 ft 478 kts 153°
2026-04-28 03:49 -12.02982 -53.11504 32961 ft 478 kts 153°
2026-04-28 03:50 -12.08952 -53.08494 32958 ft 479 kts 153°
2026-04-28 03:50 -12.14924 -53.05480 32964 ft 479 kts 153°
2026-04-28 03:51 -12.20899 -53.02464 32960 ft 479 kts 153°
2026-04-28 03:51 -12.26719 -52.99528 32958 ft 479 kts 153°
2026-04-28 03:52 -12.32693 -52.96513 32962 ft 479 kts 153°
2026-04-28 03:52 -12.38669 -52.93495 32965 ft 479 kts 153°
2026-04-28 03:53 -12.44644 -52.90474 32961 ft 479 kts 153°
2026-04-28 03:53 -12.50613 -52.87455 32964 ft 479 kts 153°
2026-04-28 03:54 -12.56586 -52.84433 32965 ft 479 kts 153°
2026-04-28 03:54 -12.62552 -52.81412 32967 ft 479 kts 153°
2026-04-28 03:55 -12.68528 -52.78385 32965 ft 479 kts 153°
2026-04-28 03:55 -12.74503 -52.75357 32969 ft 479 kts 153°
2026-04-28 03:56 -12.80476 -52.72328 32969 ft 479 kts 153°
2026-04-28 03:56 -12.86452 -52.69296 32976 ft 479 kts 153°
2026-04-28 03:57 -12.92428 -52.66263 32964 ft 480 kts 153°
2026-04-28 03:57 -12.98408 -52.63225 32969 ft 480 kts 153°
2026-04-28 03:58 -13.04376 -52.60191 32967 ft 480 kts 153°
2026-04-28 03:58 -13.10355 -52.57151 32966 ft 480 kts 153°
2026-04-28 03:59 -13.16335 -52.54108 32967 ft 479 kts 153°
2026-04-28 03:59 -13.21299 -52.51581 32966 ft 479 kts 153°
2026-04-28 04:00 -13.25157 -52.49303 32939 ft 478 kts 138°
2026-04-28 04:00 -13.26686 -52.47688 32987 ft 476 kts 127°
2026-04-28 04:00 -13.28440 -52.44816 32964 ft 476 kts 113°